TECHSAT 1B (GO-32)

Last updated on Mon Sep 15 2025 00:02:29 GMT+0000 (Coordinated Universal Time)

1 25397U 98043D 25256.93175107 .00000059 00000+0 45637-4 0 9995 2 25397 98.9813 238.1082 0000557 346.4253 13.6910 14.24338210412009
UTC large
Height (km)
Speed (km/s)
/
Latitude / Longitude
Inclination (degrees)
Orbital Period (minutes)
Azimuth
Elevation
Range (km)
Doppler Factor

Next 0 passes for location: London (51.5072 / 0.1276)

Sorry there are no passes over London.